{"data":{"norad_id":39222,"intl_designator":"2013-041A","name":"WGS F6 (USA 244)","alt_names":[],"object_type":"PAYLOAD","status":"ACTIVE","operator":null,"country":"US","launch_date":"2013-08-08","launch_site_code":"AFETR","launch_vehicle":null,"mission":null,"orbit_class":"UNKNOWN","rcs_meters":35.8016,"size_class":null,"mass_kg":null,"dimensions":null,"purposes":["comms"],"wikipedia_slug":null,"has_3d_model":false,"image_url":null,"decayed_at":null,"tle_current":{"epoch":"2026-05-25T03:05:49.034400Z","epoch_age_seconds":70686,"freshness":"FRESH","line1":"1 39222U 13041A   26145.12903975  .00000087  00000+0  00000+0 0  9994","line2":"2 39222   0.0172 334.0633 0000244  49.2657 130.6546  1.00272019 45832","mean_motion":1.00272019,"eccentricity":2.44e-5,"inclination_deg":0.0172,"raan_deg":334.0633,"arg_perigee_deg":49.2657,"mean_anomaly_deg":130.6546,"bstar":0,"rev_number":4583,"period_min":1436.0935526789,"perigee_km":35785.500544765,"apogee_km":35787.558180483,"semimajor_km":42164.666362624,"source":"CELESTRAK","updated_at":"2026-05-25T13:38:13.944653Z"}}}